Regional Weather Roundup
Issued by NWS Kansas City/Pleasant Hill, MO

Home | Current Version | Previous Version | Graphics & Text | Print | Product List | Glossary Off
Versions: 1 2 3 4 5 6 7 8 9 10 11 12 13 14 15 16 17 18 19 20 21 22 23 24 25 26 27

000
ASUS43 KEAX 221110
RWREAX

WEATHER ROUNDUP FOR EASTERN KANSAS AND NORTHWEST MISSOURI
NATIONAL WEATHER SERVICE KANSAS CITY/PLEASANT HILL MO
600 AM CDT SUN OCT 22 2017

KSZ040-057-103>105-MOZ028-029-037-043-221200-
...KANSAS CITY METROPOLITAN AREA...

CITY           SKY/WX    TMP DP  RH WIND       PRES   REMARKS
K.C. INTL      CLOUDY    49  47  93 NW7       30.07R
K.C. DOWNTOWN  CLOUDY    51  49  92 W6        30.06R
LEES SUMMIT    CLOUDY    50  49  96 NW7       30.05R
OLATHE - IXD   CLOUDY    49  47  93 NW8       30.07R
OLATHE - OJC   CLOUDY    48  47  96 NW7       30.06R
LAWRENCE       CLOUDY    49  49 100 NW3       30.08R

$$

MOZ001>008-011>017-020>025-030>033-038>040-044>046-053-054-221200-
...NORTHERN AND CENTRAL MISSOURI...

CITY           SKY/WX    TMP DP  RH WIND       PRES   REMARKS
ST. JOSEPH     CLOUDY    50  49  96 W3        30.07R
MOSBY          CLOUDY    50  46  87 NW5       30.05R
WARRENSBURG    RAIN      50  48  93 W13       30.03R
WHITEMAN AFB   RAIN      51  49  93 N13       29.93R
CLINTON        RAIN      52  50  93 NW8       30.01R
SEDALIA        LGT RAIN  53  53 100 N10       29.97R
WARSAW         NOT AVBL
CHILLICOTHE      N/A     50  49  96 CALM      30.01R
KIRKSVILLE     LGT RAIN  50  50 100 N14       29.96F

$$

MOZ041-047>049-056>058-063>065-088>090-097-221200-
...EASTERN AND SOUTHERN MISSOURI...

CITY           SKY/WX    TMP DP  RH WIND       PRES   REMARKS
ST. LOUIS INTL LGT RAIN  70  64  81 SE15      29.88R
SPIRIT OF STL  CLOUDY    72  65  78 SE13G24   29.84F
COLUMBIA       CLOUDY    55  54  96 N17       29.93S
JEFFERSON CITY CLOUDY    57  54  89 NW8       29.93F
ROLLA          CLOUDY    59  59 100 W8        29.94R
OSAGE BEACH    LGT RAIN  55  54  96 VRB3      29.95S
SPRINGFIELD    LGT RAIN  59  59 100 E5        29.93S
BRANSON        RAIN      57  57 100 CALM      29.96R
JOPLIN         CLOUDY    52  52 100 NW8       30.03S
WEST PLAINS    LGT RAIN  59  57  93 NW5       29.96R

$$

IAZ060-094-KSZ022-034>040-054-083-096-NEZ052-066-093-221200-
...KANSAS...SOUTHEAST NEBRASKA AND IOWA...

CITY           SKY/WX    TMP DP  RH WIND       PRES   REMARKS
TOPEKA         CLOUDY    49  47  93 W6        30.09R
MANHATTAN      PTCLDY    43  40  89 CALM      30.13R
EMPORIA        PTCLDY    46  43  89 W3        30.11R
CHANUTE        CLOUDY    51  48  89 NW8       30.07R
WICHITA        CLEAR     44  41  89 NW8       30.13R
OMAHA          CLOUDY    48  38  68 CALM      30.06R
LINCOLN        CLOUDY    44  37  76 CALM      30.10R
FALLS CITY     CLOUDY    48  42  80 W7        30.07R
LAMONI         CLOUDY    49  48  97 CALM      30.01R
DES MOINES     CLOUDY    51  46  83 W7        30.00R

$$





USA.gov is the U.S. government's official web portal to all federal, state and local government web resources and services.